Temp
-9 -9 -9 -9 -9 -8 -8 -8 -9 -9 -8 -8 -8 -8 -8 -7 -7 -7 -7 -7 -7 -7 -7 -7 -7 -7 -8 -8 -8 -8 -8 -8 -8 -8 -8 -8 -8 -8 -8 -8 -8 -8 -8 -8 -8 -8 -8 -8 -8
-9 -9 -9 -9 -8 -8 -8 -9 -9 -9 -9 -9 -9 -9 -8 -8 -8 -8 -8 -7 -7 -7 -7 -7 -7 -7 -7 -8 -8 -8 -8 -8 -8 -8 -8 -8 -8 -8 -8 -8 -8 -8 -8 -9 -9 -9 -9 -8 -8
-9 -9 -9 -9 -8 -8 -8 -9 -9 -10 -9 -9 -9 -9 -9 -9 -8 -8 -8 -8 -8 -8 -7 -7 -7 -7 -8 -8 -8 -8 -8 -8 -8 -8 -8 -8 -8 -8 -8 -8 -8 -8 -9 -9 -9 -9 -9 -9 -9
-9 -9 -9 -8 -8 -8 -8 -9 -10 -10 -10 -9 -9 -9 -9 -9 -8 -8 -8 -8 -8 -8 -8 -7 -7 -8 -8 -8 -8 -8 -8 -8 -8 -8 -8 -8 -8 -8 -8 -8 -8 -9 -9 -9 -9 -9 -9 -9 -9
-9 -9 -9 -8 -8 -8 -8 -9 -10 -10 -10 -10 -9 -9 -9 -9 -9 -9 -9 -9 -8 -8 -8 -8 -8 -8 -8 -8 -8 -8 -8 -8 -8 -8 -8 -8 -8 -8 -8 -8 -9 -9 -9 -9 -9 -9 -9 -9 -9
-9 -9 -8 -8 -8 -9 -9 -10 -10 -11 -11 -10 -9 -9 -9 -9 -9 -9 -9 -9 -9 -9 -8 -8 -8 -8 -8 -8 -8 -8 -8 -8 -8 -8 -9 -9 -9 -9 -9 -9 -9 -9 -9 -9 -9 -9 -9 -9 -9
-9 -8 -8 -8 -8 -8 -9 -10 -10 -11 -12 -11 -10 -9 -9 -9 -10 -9 -9 -9 -9 -9 -9 -9 -8 -8 -8 -8 -8 -8 -8 -8 -9 -9 -9 -9 -9 -9 -9 -9 -9 -9 -9 -9 -9 -9 -9 -9 -9
-8 -8 -8 -8 -8 -8 -9 -10 -11 -10 -11 -12 -11 -10 -9 -10 -10 -10 -10 -10 -10 -9 -9 -9 -9 -9 -8 -8 -8 -8 -9 -9 -9 -9 -9 -9 -9 -9 -9 -9 -9 -9 -9 -9 -9 -9 -9 -9 -9
-8 -8 -8 -8 -8 -8 -9 -10 -10 -11 -10 -11 -11 -9 -10 -10 -10 -10 -10 -10 -10 -10 -9 -9 -9 -9 -9 -9 -9 -8 -8 -9 -9 -9 -9 -9 -9 -9 -9 -9 -9 -9 -9 -9 -9 -9 -9 -9 -9
-8 -8 -8 -8 -9 -9 -8 -10 -11 -11 -11 -11 -10 -10 -9 -10 -10 -10 -10 -10 -10 -10 -10 -9 -9 -9 -9 -9 -9 -9 -9 -9 -9 -9 -9 -9 -9 -9 -10 -10 -9 -9 -9 -9 -9 -9 -9 -9 -9
-9 -9 -9 -9 -9 -9 -8 -9 -11 -11 -12 -11 -10 -10 -9 -9 -10 -11 -10 -10 -10 -10 -10 -10 -10 -9 -9 -9 -9 -9 -9 -9 -9 -10 -10 -10 -10 -10 -10 -10 -10 -10 -10 -10 -9 -9 -9 -10 -10
-10 -11 -11 -11 -12 -10 -9 -9 -11 -12 -13 -12 -10 -10 -10 -10 -10 -11 -11 -10 -11 -11 -10 -10 -10 -10 -9 -10 -9 -9 -9 -9 -10 -10 -10 -10 -10 -10 -10 -10 -10 -10 -10 -10 -10 -10 -10 -10 -10
-14 -15 -15 -15 -15 -14 -12 -12 -13 -13 -14 -14 -12 -10 -11 -11 -11 -11 -11 -11 -11 -11 -11 -11 -10 -10 -10 -10 -10 -9 -9 -9 -10 -10 -10 -10 -10 -10 -10 -10 -10 -10 -10 -11 -11 -10 -10 -10 -10
-17 -17 -17 -17 -17 -17 -16 -15 -16 -14 -15 -16 -15 -12 -12 -12 -11 -11 -11 -11 -11 -11 -11 -11 -11 -10 -10 -10 -10 -10 -10 -10 -10 -10 -10 -10 -10 -10 -11 -11 -11 -11 -11 -11 -11 -11 -10 -10 -10
-18 -18 -17 -18 -18 -18 -17 -17 -17 -16 -17 -16 -16 -16 -14 -13 -13 -12 -12 -12 -12 -12 -11 -11 -11 -11 -10 -10 -10 -10 -10 -10 -11 -10 -10 -10 -11 -11 -11 -11 -11 -11 -11 -11 -11 -11 -11 -11 -10
-18 -18 -18 -20 -18 -18 -18 -17 -18 -17 -18 -17 -17 -17 -16 -13 -14 -14 -13 -12 -12 -12 -12 -12 -11 -11 -11 -11 -11 -10 -10 -10 -11 -11 -11 -11 -11 -11 -11 -11 -11 -11 -11 -11 -11 -11 -11 -11 -11
-19 -19 -19 -19 -19 -19 -18 -17 -18 -18 -18 -17 -17 -17 -16 -15 -14 -14 -13 -13 -13 -13 -13 -12 -12 -12 -11 -11 -11 -11 -11 -11 -11 -11 -11 -11 -11 -11 -11 -11 -11 -12 -12 -12 -12 -11 -11 -11 -11
-19 -19 -19 -19 -20 -20 -20 -18 -18 -18 -17 -17 -17 -17 -17 -15 -14 -14 -14 -14 -13 -13 -13 -13 -12 -12 -12 -12 -11 -11 -11 -12 -11 -11 -11 -11 -11 -11 -11 -12 -12 -12 -12 -12 -12 -12 -11 -11 -12
-19 -19 -19 -20 -21 -20 -19 -18 -18 -19 -18 -17 -17 -18 -17 -16 -15 -15 -15 -14 -13 -13 -13 -13 -13 -12 -12 -12 -12 -12 -12 -12 -13 -12 -12 -12 -12 -12 -12 -12 -12 -12 -12 -12 -12 -12 -12 -12 -12
-19 -19 -19 -20 -21 -20 -20 -19 -19 -18 -18 -18 -18 -17 -17 -17 -16 -15 -15 -15 -14 -14 -14 -13 -13 -13 -12 -12 -12 -12 -13 -12 -12 -13 -12 -12 -12 -12 -12 -12 -12 -12 -12 -12 -12 -12 -12 -12 -12
-20 -19 -20 -20 -20 -21 -20 -19 -19 -19 -19 -18 -18 -18 -18 -18 -17 -16 -15 -15 -14 -14 -14 -13 -13 -13 -13 -13 -12 -13 -13 -13 -13 -13 -13 -13 -12 -12 -12 -12 -12 -12 -13 -12 -12 -12 -12 -12 -12
-20 -20 -20 -20 -20 -20 -22 -20 -20 -20 -19 -19 -19 -18 -18 -18 -18 -17 -16 -15 -14 -14 -14 -14 -13 -13 -13 -13 -13 -13 -13 -13 -13 -13 -13 -13 -12 -12 -12 -12 -12 -13 -13 -13 -13 -13 -12 -12 -12
-19 -19 -20 -20 -20 -21 -22 -21 -21 -20 -20 -20 -19 -19 -19 -18 -18 -17 -16 -16 -15 -14 -15 -14 -14 -13 -13 -13 -13 -13 -13 -13 -13 -13 -13 -13 -13 -13 -12 -12 -13 -13 -14 -13 -13 -13 -13 -13 -13
-20 -20 -20 -20 -21 -21 -21 -21 -20 -20 -20 -19 -19 -19 -19 -19 -18 -17 -17 -16 -15 -15 -15 -15 -14 -14 -13 -13 -13 -13 -13 -13 -13 -13 -13 -13 -13 -12 -12 -13 -13 -14 -13 -13 -13 -13 -13 -13 -13
-19 -20 -20 -20 -20 -20 -20 -20 -20 -20 -20 -19 -19 -19 -19 -19 -18 -17 -17 -17 -16 -15 -15 -15 -14 -14 -14 -13 -13 -12 -12 -13 -13 -13 -13 -13 -13 -13 -13 -13 -14 -14 -13 -13 -13 -13 -13 -13 -13
-20 -20 -20 -20 -20 -20 -20 -21 -20 -20 -20 -20 -19 -19 -19 -18 -18 -17 -17 -17 -17 -16 -15 -15 -14 -14 -14 -14 -13 -13 -12 -13 -13 -13 -13 -14 -14 -13 -14 -14 -14 -14 -13 -13 -13 -13 -13 -14 -14
-19 -20 -20 -20 -20 -20 -20 -20 -20 -20 -20 -20 -19 -18 -18 -18 -18 -18 -17 -17 -17 -16 -16 -15 -15 -15 -14 -14 -14 -13 -13 -13 -13 -14 -14 -14 -14 -14 -14 -14 -14 -14 -14 -14 -14 -14 -14 -14 -14
-19 -19 -20 -21 -20 -20 -20 -20 -20 -20 -20 -20 -19 -19 -18 -18 -18 -18 -17 -17 -17 -16 -16 -16 -15 -16 -15 -15 -14 -14 -14 -14 -15 -14 -14 -14 -15 -14 -15 -14 -14 -14 -14 -14 -14 -14 -14 -15 -15
-20 -20 -20 -20 -20 -20 -20 -20 -20 -20 -20 -20 -20 -19 -19 -18 -18 -18 -18 -18 -17 -17 -16 -16 -16 -16 -15 -15 -14 -14 -14 -15 -15 -15 -15 -15 -15 -14 -14 -14 -14 -14 -14 -14 -14 -14 -15 -15 -15
-19 -20 -20 -21 -21 -20 -21 -20 -20 -20 -19 -20 -20 -19 -19 -19 -18 -18 -18 -18 -17 -17 -17 -17 -16 -17 -16 -15 -15 -14 -15 -15 -15 -15 -15 -15 -15 -14 -14 -14 -14 -14 -14 -14 -15 -15 -15 -15 -16
Height
5843 5844 5845 5847 5849 5846 5856 5863 5863 5863 5865 5866 5867 5868 5869 5870 5872 5876 5874 5873 5874 5875 5875 5876 5877 5878 5878 5879 5879 5879 5880 5880 5879 5879 5879 5879 5878 5878 5878 5877 5876 5876 5875 5873 5872 5871 5870 5869 5868
5836 5837 5839 5838 5838 5839 5850 5859 5859 5860 5859 5862 5863 5863 5866 5868 5869 5872 5872 5872 5872 5873 5874 5875 5876 5876 5877 5877 5878 5879 5878 5879 5879 5878 5878 5878 5878 5878 5877 5877 5876 5875 5874 5872 5871 5870 5868 5868 5867
5828 5830 5831 5829 5828 5832 5845 5854 5855 5852 5851 5856 5858 5858 5862 5864 5866 5869 5868 5870 5870 5870 5872 5873 5874 5874 5875 5875 5876 5877 5877 5877 5877 5877 5877 5877 5877 5877 5876 5876 5875 5874 5873 5872 5870 5869 5868 5866 5865
5819 5821 5823 5821 5822 5830 5837 5847 5848 5845 5844 5850 5851 5852 5858 5860 5862 5864 5866 5867 5867 5869 5869 5870 5871 5872 5872 5873 5874 5875 5875 5875 5875 5876 5876 5876 5875 5875 5874 5874 5873 5872 5871 5870 5869 5868 5867 5865 5864
5810 5812 5813 5813 5817 5823 5828 5838 5839 5835 5835 5840 5843 5843 5850 5854 5855 5860 5862 5863 5863 5866 5867 5868 5869 5870 5870 5870 5871 5872 5872 5873 5873 5873 5874 5874 5874 5873 5872 5871 5871 5870 5869 5869 5868 5867 5865 5864 5863
5800 5802 5804 5806 5810 5813 5816 5825 5829 5828 5826 5828 5833 5839 5844 5849 5849 5854 5857 5860 5860 5862 5864 5865 5867 5867 5867 5868 5868 5869 5869 5870 5870 5871 5871 5871 5871 5871 5870 5869 5868 5868 5867 5867 5866 5864 5863 5862 5861
5790 5792 5795 5797 5797 5800 5805 5811 5816 5817 5817 5818 5825 5828 5835 5841 5844 5848 5851 5855 5856 5858 5860 5862 5864 5864 5865 5865 5866 5866 5867 5867 5868 5868 5868 5868 5868 5868 5867 5866 5866 5865 5864 5864 5863 5862 5861 5860 5858
5778 5781 5784 5784 5785 5790 5792 5797 5804 5807 5811 5808 5810 5817 5825 5834 5837 5841 5844 5848 5851 5853 5856 5858 5860 5861 5862 5863 5863 5863 5864 5864 5865 5865 5865 5865 5865 5865 5864 5863 5863 5862 5861 5860 5859 5858 5857 5856 5855
5764 5768 5769 5771 5771 5775 5778 5780 5787 5795 5801 5799 5797 5806 5814 5823 5829 5833 5838 5842 5844 5847 5851 5853 5856 5857 5858 5859 5860 5860 5861 5861 5861 5861 5862 5862 5862 5862 5861 5860 5859 5858 5857 5857 5856 5854 5853 5852 5851
5748 5751 5752 5753 5754 5759 5764 5767 5771 5779 5784 5785 5789 5791 5801 5813 5819 5824 5830 5834 5838 5841 5844 5848 5850 5852 5854 5856 5857 5857 5858 5858 5858 5858 5858 5859 5858 5858 5857 5856 5855 5854 5853 5853 5851 5850 5849 5848 5847
5732 5733 5732 5733 5736 5740 5747 5750 5756 5759 5767 5773 5778 5781 5790 5798 5809 5814 5820 5825 5829 5833 5837 5842 5844 5847 5850 5851 5853 5853 5855 5855 5855 5855 5855 5855 5854 5854 5853 5852 5851 5850 5849 5848 5847 5846 5845 5843 5842
5715 5715 5713 5714 5717 5720 5727 5734 5739 5743 5751 5760 5765 5772 5777 5783 5797 5803 5809 5816 5821 5826 5830 5835 5839 5841 5845 5846 5848 5849 5851 5852 5851 5851 5851 5851 5850 5850 5849 5848 5848 5846 5845 5844 5842 5841 5840 5838 5837
5697 5698 5698 5699 5701 5702 5708 5714 5720 5732 5740 5741 5751 5761 5766 5773 5785 5793 5799 5804 5810 5817 5822 5828 5832 5834 5838 5840 5843 5844 5846 5848 5847 5847 5847 5847 5846 5846 5845 5844 5843 5842 5841 5839 5837 5836 5835 5833 5832
5689 5687 5688 5688 5690 5690 5689 5696 5700 5715 5724 5728 5734 5743 5754 5762 5772 5781 5788 5794 5800 5808 5815 5819 5824 5828 5832 5834 5837 5838 5841 5842 5843 5843 5843 5843 5842 5841 5840 5839 5838 5837 5836 5834 5832 5831 5830 5828 5826
5681 5682 5680 5676 5678 5679 5676 5684 5693 5702 5702 5713 5719 5730 5737 5748 5757 5768 5775 5782 5790 5798 5804 5809 5815 5820 5824 5827 5830 5832 5834 5835 5838 5838 5838 5837 5837 5836 5835 5835 5833 5832 5830 5829 5827 5825 5824 5822 5820
5676 5674 5674 5670 5669 5670 5669 5683 5680 5681 5686 5692 5704 5712 5720 5728 5741 5752 5761 5770 5777 5787 5794 5800 5807 5812 5817 5820 5823 5826 5828 5831 5832 5833 5832 5832 5832 5831 5831 5830 5828 5827 5825 5823 5821 5820 5818 5816 5813
5672 5670 5668 5666 5663 5662 5662 5670 5671 5672 5674 5681 5690 5697 5707 5713 5724 5738 5749 5757 5765 5776 5782 5791 5798 5804 5808 5813 5816 5819 5821 5824 5825 5826 5826 5826 5826 5826 5825 5824 5823 5821 5819 5818 5815 5813 5811 5809 5807
5668 5665 5662 5660 5657 5656 5657 5660 5663 5664 5666 5672 5678 5685 5694 5702 5711 5726 5738 5744 5753 5764 5770 5779 5787 5793 5799 5804 5808 5812 5814 5816 5818 5819 5820 5820 5820 5820 5819 5818 5816 5815 5813 5811 5809 5807 5804 5802 5799
5662 5659 5655 5652 5648 5648 5648 5652 5653 5656 5659 5664 5669 5673 5681 5692 5704 5708 5721 5730 5741 5752 5760 5770 5778 5785 5791 5797 5799 5804 5807 5809 5810 5812 5813 5814 5814 5813 5812 5811 5809 5808 5806 5804 5802 5799 5797 5794 5791
5656 5652 5648 5646 5643 5639 5638 5642 5644 5648 5651 5653 5658 5664 5671 5680 5685 5696 5711 5717 5728 5742 5751 5758 5767 5776 5782 5786 5791 5795 5799 5801 5803 5805 5806 5807 5806 5806 5805 5804 5802 5800 5798 5796 5794 5791 5788 5785 5783
5651 5645 5641 5638 5635 5632 5629 5632 5635 5639 5641 5644 5649 5653 5659 5667 5674 5685 5696 5708 5718 5731 5743 5749 5758 5768 5773 5776 5782 5787 5789 5792 5794 5796 5798 5799 5798 5798 5797 5796 5795 5793 5790 5788 5785 5782 5780 5777 5774
5647 5640 5635 5631 5628 5628 5624 5623 5627 5629 5633 5636 5641 5646 5652 5657 5662 5672 5681 5696 5710 5721 5731 5740 5748 5757 5764 5770 5773 5778 5781 5784 5786 5788 5789 5790 5790 5790 5789 5788 5786 5783 5781 5779 5775 5773 5770 5767 5764
5646 5638 5632 5628 5625 5624 5622 5620 5625 5624 5628 5631 5636 5641 5646 5650 5655 5664 5674 5685 5699 5711 5722 5731 5739 5748 5755 5761 5762 5768 5772 5774 5777 5779 5781 5782 5782 5780 5779 5778 5775 5773 5772 5769 5766 5763 5760 5757 5753
5645 5639 5633 5630 5625 5624 5622 5622 5623 5624 5626 5629 5633 5636 5641 5645 5651 5657 5665 5673 5687 5700 5711 5721 5730 5739 5746 5750 5755 5760 5762 5765 5768 5770 5771 5772 5772 5770 5771 5768 5766 5764 5763 5760 5756 5753 5750 5746 5742
5642 5638 5633 5631 5627 5625 5623 5623 5622 5622 5624 5627 5630 5634 5638 5641 5646 5651 5658 5667 5678 5690 5701 5712 5722 5730 5736 5742 5747 5751 5752 5756 5759 5760 5761 5762 5762 5761 5760 5759 5757 5755 5753 5750 5747 5743 5739 5735 5731
5641 5638 5635 5631 5629 5626 5625 5623 5623 5622 5622 5623 5625 5631 5635 5639 5643 5647 5653 5662 5668 5679 5691 5703 5713 5720 5727 5734 5740 5743 5743 5746 5749 5751 5754 5749 5753 5752 5751 5750 5749 5746 5744 5740 5736 5732 5728 5724 5719
5642 5638 5635 5631 5629 5627 5626 5624 5623 5623 5622 5623 5623 5628 5632 5636 5640 5643 5650 5656 5663 5672 5683 5695 5704 5712 5719 5725 5732 5736 5731 5733 5734 5737 5741 5741 5744 5743 5742 5742 5740 5737 5733 5730 5726 5721 5717 5712 5706
5642 5638 5634 5630 5627 5625 5625 5623 5622 5623 5622 5622 5622 5625 5628 5633 5637 5641 5647 5651 5659 5666 5675 5685 5696 5703 5710 5717 5723 5726 5727 5728 5731 5730 5734 5736 5737 5734 5734 5733 5731 5727 5723 5719 5715 5711 5705 5699 5693
5644 5638 5633 5630 5626 5622 5622 5622 5620 5620 5620 5621 5620 5623 5624 5630 5633 5638 5642 5645 5654 5662 5671 5681 5688 5696 5703 5710 5716 5712 5718 5722 5722 5724 5728 5729 5728 5727 5725 5725 5722 5717 5713 5709 5704 5698 5692 5685 5678
5642 5636 5631 5627 5624 5620 5617 5619 5617 5616 5616 5617 5619 5620 5622 5627 5629 5635 5639 5642 5650 5659 5667 5673 5681 5689 5698 5704 5707 5705 5712 5716 5717 5720 5722 5721 5720 5719 5719 5715 5711 5706 5702 5697 5692 5686 5679 5671 5663
Wind_Speed
31 34 33 36 40 43 33 25 25 26 25 22 20 19 17 16 14 10 10 9 8 8 7 8 9 10 9 9 8 7 7 7 7 7 6 4 3 3 5 6 7 9 10 11 11 10 9 9 9
35 35 36 39 44 45 36 26 29 27 29 25 24 24 21 18 17 12 12 11 8 7 7 7 9 10 11 10 10 9 8 8 7 7 6 4 2 0 2 5 6 9 10 10 11 10 10 10 10
39 39 39 43 47 46 37 29 29 34 37 31 27 29 24 21 21 16 14 12 9 8 6 7 8 10 11 12 12 11 10 9 8 7 6 5 3 2 3 5 6 8 9 10 11 12 10 11 12
44 45 45 48 49 43 39 30 31 39 41 38 33 34 29 26 24 20 18 14 13 9 8 7 7 8 10 12 13 14 13 12 10 9 8 6 5 5 5 6 7 8 10 11 12 13 13 13 13
45 46 48 49 47 44 42 33 37 41 44 43 41 40 35 30 30 25 22 17 15 11 10 10 8 6 7 11 13 15 15 14 13 11 10 9 9 8 8 8 9 10 10 12 13 14 14 14 14
45 48 48 46 45 46 45 38 38 43 48 48 46 43 40 35 33 29 26 21 19 15 14 12 10 8 7 7 11 14 16 16 15 14 12 12 12 11 11 11 12 12 12 13 14 15 16 16 16
48 47 45 47 51 51 48 47 44 45 49 54 51 47 45 40 38 34 30 26 24 21 18 16 13 11 9 7 8 13 15 16 17 16 15 14 14 14 14 14 14 15 15 15 16 17 17 19 19
51 52 51 51 51 52 54 52 49 49 50 55 58 54 49 45 42 39 35 31 28 27 23 19 16 13 11 8 8 10 13 16 17 18 17 17 17 17 17 16 17 17 18 18 18 19 19 20 21
54 53 54 57 58 57 59 59 56 54 53 58 62 57 54 48 48 45 41 37 34 31 27 24 21 17 14 11 9 11 12 15 17 18 19 19 19 19 19 19 19 20 21 22 21 21 21 22 23
58 59 60 62 64 64 63 63 63 60 60 63 64 64 59 54 49 49 44 41 38 36 33 28 25 22 18 15 12 12 14 13 15 17 19 20 20 21 21 21 22 22 22 23 23 23 23 24 25
51 58 62 66 70 70 69 69 67 68 64 66 66 68 62 59 54 52 49 45 42 40 37 33 30 26 22 20 17 14 18 15 14 15 16 17 19 21 22 22 23 23 23 24 24 24 24 26 26
45 48 55 61 65 73 76 75 72 71 67 69 71 70 68 65 58 56 52 50 47 43 41 37 33 33 28 25 21 18 20 18 15 15 14 16 17 19 21 22 23 23 24 24 25 26 27 28 27
43 42 44 48 50 62 71 75 70 69 67 69 71 73 71 65 58 60 56 54 52 47 44 41 39 36 33 29 26 21 23 23 18 16 15 15 17 19 21 23 24 26 27 28 29 30 30 28 26
31 36 35 37 38 43 52 58 61 69 63 67 69 73 71 68 60 60 61 58 55 50 46 45 42 39 36 32 31 25 24 26 21 19 18 17 18 19 21 23 25 27 28 29 30 31 30 29 28
27 27 30 34 34 35 43 46 42 48 55 63 64 64 69 67 64 59 65 62 57 53 50 48 46 43 40 37 33 32 28 34 24 23 22 21 21 22 23 25 26 27 29 30 31 31 31 30 30
25 24 23 26 33 34 38 28 36 43 48 59 63 64 67 74 68 60 62 66 62 56 53 52 48 46 43 40 36 35 34 32 28 29 26 25 24 24 25 27 28 29 30 32 32 32 32 32 32
25 25 23 23 26 32 34 28 30 36 43 47 56 63 66 70 73 67 62 66 66 58 57 53 50 48 46 44 40 36 35 30 32 32 31 29 27 27 27 28 30 31 32 33 34 34 34 34 33
28 28 28 28 28 26 27 31 30 33 37 38 44 52 61 68 71 66 63 66 68 62 59 56 52 51 48 46 42 39 36 35 36 35 33 33 31 30 30 31 33 34 35 35 36 36 36 36 35
26 26 25 26 32 32 29 27 26 26 30 33 38 42 50 63 66 69 63 66 69 67 64 59 55 52 49 47 45 40 40 36 39 37 35 34 33 32 32 34 37 38 39 38 38 38 37 37 36
27 27 29 25 26 33 36 33 32 25 25 27 30 37 40 51 66 69 65 67 68 67 65 61 59 55 50 49 48 43 40 39 40 39 38 36 36 36 37 38 40 40 41 40 39 39 39 39 36
27 32 31 32 30 27 31 31 31 28 27 26 26 30 36 45 59 64 63 64 67 65 65 63 61 58 54 51 48 46 46 42 43 44 41 42 41 39 39 40 42 43 38 39 40 40 40 38 38
27 27 29 31 27 24 22 22 20 22 23 23 22 27 30 37 53 61 63 60 65 65 64 63 61 60 59 53 52 51 45 43 44 47 46 44 44 43 41 44 45 43 36 40 41 41 40 39 39
26 23 26 22 16 19 11 17 8 12 12 15 18 22 28 34 44 55 60 59 60 64 63 65 64 57 58 60 54 55 52 46 45 48 50 47 46 44 47 49 41 39 38 42 42 41 40 40 42
23 20 16 18 13 7 7 8 0 11 11 12 18 24 26 27 34 47 53 56 56 60 62 63 66 59 57 54 60 59 55 55 55 52 50 49 49 49 46 41 36 36 41 42 42 41 41 43 44
21 21 19 12 17 9 6 8 6 2 10 12 15 21 22 23 24 35 48 49 51 54 58 60 63 63 57 58 50 58 67 63 58 59 57 58 59 46 37 35 35 39 42 42 41 42 44 45 47
19 18 17 16 16 13 12 9 7 8 6 11 15 16 17 18 21 22 30 43 47 52 55 56 58 62 59 58 56 51 50 52 47 59 53 32 39 36 37 36 39 42 42 41 42 44 45 47 52
18 19 19 15 13 13 8 6 7 5 6 7 13 16 18 17 19 20 21 35 45 49 51 53 54 57 58 52 52 57 39 35 35 35 33 30 34 35 34 39 41 41 41 42 44 45 48 52 56
22 21 20 17 16 14 11 9 6 4 6 7 10 15 22 19 19 20 21 31 43 47 49 50 51 51 52 52 47 50 50 35 26 27 30 32 38 39 40 41 41 41 42 44 45 48 52 56 60
26 26 23 21 18 19 13 12 13 10 8 10 11 10 19 25 25 21 20 26 38 44 46 47 48 48 48 45 47 35 44 30 31 30 33 38 40 43 40 40 41 42 43 45 49 53 56 60 63
27 26 24 21 20 19 21 16 17 17 18 12 15 12 14 23 30 22 20 24 35 42 43 43 48 44 41 44 45 21 27 35 34 34 37 41 42 43 41 40 42 43 46 49 53 56 59 62 65
Wind_Direction
256 255 254 252 250 251 246 239 238 247 246 245 246 244 240 233 230 222 220 233 214 219 226 233 226 220 216 210 205 195 187 182 175 174 169 144 108 77 47 32 19 16 17 14 10 1 355 355 350
259 258 256 255 254 255 250 239 244 247 245 243 245 244 238 239 233 217 227 228 215 221 238 239 239 232 228 226 224 216 204 201 198 196 199 192 175 117 1 5 6 3 5 2 359 357 353 348 343
258 258 257 256 254 255 260 242 240 241 245 234 239 243 239 241 234 225 228 225 227 230 237 240 242 241 238 233 232 229 223 217 215 217 221 227 240 285 315 329 346 351 352 351 352 353 349 342 336
259 257 257 257 258 257 256 236 235 242 245 241 231 238 235 240 239 232 230 226 228 233 231 237 243 246 245 242 238 236 233 231 230 234 240 250 263 283 297 313 324 332 338 339 340 344 344 338 334
257 257 256 256 258 258 255 240 228 238 243 242 238 235 232 232 239 233 231 226 230 228 234 238 236 243 250 249 246 244 241 238 239 241 248 258 266 278 291 303 311 315 323 327 329 333 334 331 331
257 256 256 258 257 257 252 244 231 232 244 242 238 236 236 229 237 236 234 231 231 228 234 237 237 242 249 258 252 247 245 244 243 245 248 257 265 273 282 294 301 305 309 312 318 323 323 324 324
260 259 258 256 253 252 249 244 233 226 233 244 242 236 233 232 231 235 235 234 235 232 233 238 238 245 248 258 264 255 251 248 247 248 250 257 264 272 278 285 291 298 303 306 307 313 317 317 318
260 259 257 253 252 249 248 242 237 234 229 237 243 237 233 232 233 231 233 233 235 236 235 236 239 240 248 253 267 270 256 253 252 253 255 259 265 272 279 284 289 294 298 303 305 308 312 314 314
261 258 256 252 248 246 244 243 237 232 231 231 241 238 235 230 233 231 231 232 234 236 235 236 239 240 244 247 256 271 268 257 257 257 261 265 268 273 279 283 288 291 295 300 305 305 308 310 312
260 258 252 248 246 244 244 242 240 232 231 231 235 240 236 225 230 232 228 228 230 234 235 235 238 239 242 248 253 265 273 264 260 263 265 270 273 276 280 284 288 290 294 297 302 304 305 307 309
258 254 250 247 243 243 242 240 237 239 230 231 232 238 239 234 223 231 229 226 226 230 232 232 235 238 242 246 251 257 272 268 266 266 269 275 279 281 284 287 290 293 296 298 300 302 304 306 309
267 257 253 249 245 241 239 237 234 235 235 231 232 235 237 236 226 225 229 227 225 227 232 231 235 242 244 244 246 251 264 264 267 269 271 275 279 282 286 290 293 295 297 299 301 303 304 305 305
276 268 262 258 251 246 241 238 240 233 232 233 233 233 235 236 231 225 227 227 226 224 227 231 235 237 237 240 245 245 255 261 263 269 276 282 283 285 287 289 291 293 295 298 300 301 303 304 302
278 275 269 265 260 253 249 242 242 235 230 231 234 233 233 237 234 227 225 228 226 225 226 229 230 233 235 235 243 240 249 252 263 266 273 282 290 295 294 295 295 296 298 299 301 303 303 304 302
287 276 271 263 260 255 253 248 244 239 235 226 230 231 232 233 233 228 225 226 226 224 223 227 228 231 234 236 236 242 244 255 258 265 270 275 284 294 299 301 300 300 301 303 305 306 305 303 302
290 288 278 267 261 256 255 252 242 239 233 231 225 225 225 227 226 223 222 225 225 223 223 225 227 231 233 235 235 241 245 256 256 263 266 273 280 288 296 300 303 302 303 305 307 308 306 303 302
302 296 291 284 276 263 256 244 240 238 239 237 230 227 225 227 226 224 219 221 224 223 223 224 226 229 232 235 235 236 243 254 254 258 266 272 278 285 292 298 301 303 304 307 308 308 307 305 303
306 298 291 285 277 272 262 253 242 241 238 239 236 233 227 226 226 224 222 222 220 222 224 221 223 225 230 234 237 238 242 250 258 259 263 270 276 282 288 294 298 300 302 305 308 308 306 304 304
312 314 305 286 277 271 264 258 255 249 246 241 238 234 231 225 227 227 218 222 220 219 224 223 223 225 227 232 236 236 244 248 255 261 264 269 274 279 285 291 293 298 299 302 307 307 305 304 303
315 307 311 300 286 277 266 257 259 255 248 244 239 238 232 225 221 227 224 219 220 219 221 225 222 225 227 229 235 240 241 248 253 260 264 267 271 275 280 285 291 293 296 298 305 305 304 302 301
319 305 303 306 289 295 278 261 250 248 246 246 242 235 232 223 222 220 225 222 222 218 220 225 225 225 229 234 235 238 243 247 254 259 261 263 267 271 276 284 288 289 293 299 304 303 302 301 299
328 325 315 307 293 298 289 277 243 240 236 242 242 239 230 224 221 218 218 221 220 219 218 222 226 226 229 233 237 240 243 249 252 257 261 264 268 272 275 283 285 288 297 301 303 302 301 300 297
342 346 348 333 314 317 288 279 186 212 223 236 235 231 224 225 222 221 217 217 217 219 219 223 226 228 232 232 237 240 242 247 251 256 260 265 268 269 276 282 281 288 299 301 302 301 298 298 298
334 342 345 350 345 359 289 317 186 239 239 236 238 220 221 232 226 222 219 214 214 216 220 222 227 229 231 237 241 243 245 246 250 253 257 261 264 268 275 279 287 296 300 301 301 299 298 299 300
327 337 349 327 359 1 19 19 335 288 238 240 225 225 222 225 224 223 220 217 212 212 218 221 225 229 232 233 240 250 244 248 251 255 257 260 267 263 281 291 297 300 300 300 299 298 299 300 300
339 334 343 347 356 3 1 4 354 334 255 226 228 206 212 224 218 218 218 217 215 209 215 218 223 230 234 237 238 251 254 252 266 257 268 272 285 291 290 294 298 299 298 297 297 299 300 300 301
336 338 335 331 339 356 19 355 336 318 296 255 244 222 215 218 223 221 213 214 213 211 211 215 220 226 231 236 237 240 256 255 256 280 287 290 290 298 297 297 296 296 296 297 298 300 300 301 304
344 339 330 323 316 305 316 304 312 304 271 282 261 234 219 219 221 223 216 211 214 210 210 212 217 223 229 235 238 244 256 262 272 278 282 289 291 297 298 297 294 294 296 298 299 299 302 305 307
354 359 350 338 315 299 297 286 287 283 265 249 248 241 222 218 221 227 223 208 211 210 209 211 213 220 227 232 236 231 238 269 271 272 279 284 290 292 295 292 293 295 297 298 299 301 305 307 307
346 340 342 331 326 300 295 293 287 282 281 266 236 227 227 211 223 223 226 217 205 208 208 213 213 215 224 233 230 237 247 259 265 272 279 282 287 291 290 291 294 297 297 298 302 305 307 307 308